Regional Weather Roundup
Issued by NWS Bismarck, ND

Home | Current Version | Previous Version | Text Only | Print | Product List | Glossary On
Versions: 1 2 3 4 5 6 7 8 9 10 11 12 13 14 15 16 17 18 19 20 21 22 23 24 25 26 27 28 29 30 31 32 33 34 35 36 37 38 39 40 41 42 43 44 45 46 47 48 49 50
897
ASUS43 KBIS 180610
RWRBIS

NWR BROADCAST TEXT
NATIONAL WEATHER SERVICE BISMARCK ND
1200 AM CST WED JAN 18 2017

NOTE: "FAIR" INDICATES FEW OR NO CLOUDS BELOW 12,000 FEET WITH NO
SIGNIFICANT WEATHER AND/OR OBSTRUCTIONS TO VISIBILITY.


CITY           SKY/WX    TMP DP  RH WIND       PRES   REMARKS
WILLISTON      FAIR      30  22  72 S10       29.71F
MINOT          FAIR      38  27  64 SW15      29.66R
MINOT AFB      NOT AVBL
BISMARCK       FAIR      26  18  71 S5        29.77R
DICKINSON      FAIR      33  22  63 W15       29.75R
GARRISON         N/A     24  19  81 W6        29.71R WCI  17
HETTINGER ARPT FAIR      27  18  69 CALM      29.82R
JAMESTOWN      FAIR      28  19  69 W14       29.73S WCI  17
CARRINGTON     FAIR      28  23  80 W13       29.71S WCI  18
HAZEN            N/A    N/A N/A N/A SW9       29.76R
MANDAN         FAIR      32  23  69 W13       29.76R
RUGBY            N/A     21  19  93 SW13      29.65R WCI   9
STANLEY        FAIR      32  27  80 W18       29.68F
TIOGA          FAIR      28  27  93 W6        29.69S
WATFORD CITY   FAIR      32  25  74 SW10      29.73S
$$

CITY           SKY/WX    TMP DP  RH WIND       PRES   REMARKS
GRAND FORKS    FAIR      22  15  75 S15       29.68F WCI   9
GRAND FORKS AF CLEAR     26  19  72 SW16      29.67F WCI  14
DEVILS LAKE    FAIR      24  20  84 SW8       29.66F WCI  15
FARGO          FAIR      23  17  78 S13       29.78F WCI  11
CAVALIER         N/A     32  23  69 SW7       29.61S
GRAFTON        FAIR      23  19  86 S10       29.66S WCI  12
GWINNER        FAIR      27  23  86 SW20      29.81S WCI  13
ROLLA            N/A    N/A N/A N/A MISG        N/A
$$

CITY           SKY/WX    TMP DP  RH WIND       PRES   REMARKS
ABERDEEN       FAIR      15  11  83 S7        29.85S WCI   5
MOBRIDGE       FAIR      17   9  70 SE8       29.79F WCI   7
BUFFALO          N/A     34  20  56 W10       29.76R
RAPID CITY     FAIR      26  15  63 W6        29.86S WCI  19
GLASGOW        FAIR      26  22  84 E10       29.68F WCI  16
SIDNEY         FAIR      26  21  81 S9        29.74F WCI  17
WOLF POINT     FAIR      16  13  88 CALM      29.71S
GLENDIVE       FAIR      28  21  75 E5        29.78R
MILES CITY     FAIR      25  16  68 S5        29.82S WCI  19
BAKER          FAIR      35  21  56 SW17      29.80S
$$

CITY           SKY/WX    TMP DP  RH WIND       PRES   REMARKS
BILLINGS       FAIR      31  13  47 W29G36    29.83F WCI  16
GREAT FALLS    FAIR      39  25  57 SW22      29.68F
REGINA         CLEAR     30  27  86 SW10      29.54R
ESTEVAN        PTCLDY    30  25  80 SW15      29.60F WCI  19
$$





USA.gov is the U.S. government's official web portal to all federal, state and local government web resources and services.